www.pogodaiklimat.ru

Погода и климат >> Архив погоды >> Новая Зеландия >> Мыс Кэмпбелл


ПОГОДА на Мысе Кэмпбелл

  • Прогноз погоды на Мысе Кэмпбелл
  • Монитор погоды на Мысе Кэмпбелл

АРХИВ ПОГОДЫ на Мысе Кэмпбелл

Время (UTC), дата Ветер
(напр.,м/с)
 
Видим.   Явления Облачность Т
(С)
Тd
(С)
f
(%)
Тe
(С)
Тes
(С)
Комфортность P
(гПа)
Po
(гПа)
Тmin
(С)
Tmax
(С)
R
(мм)
R24
(мм)
S
(см)
15 18.06 З 3 н/о н/о +7.3 +1.9 69 +5 +5 1026.5 1025.9
18 18.06 З 3 н/о н/о +7.3 +2.2 70 +5 +5 1026.4 1025.7
21 18.06 З 4 н/о н/о +6.9 +2.6 74 +4 +4 1027.6 1027.0
00 19.06 СЗ 3 н/о н/о +9.9 +3.2 63 +8 +8 1027.2 1026.5 +6.7
03 19.06 С 5 н/о н/о +10.7 +4.3 65 +8 +8 1026.0 1025.3
06 19.06 С 7 н/о н/о +10.7 +7.1 78 +7 +7 1025.7 1025.0
09 19.06 С 7 н/о н/о +10.5 +6.2 75 +7 +7 1025.9 1025.2
12 19.06 СЗ 7 н/о н/о +8.4 +5.3 81 +4 +4 1025.1 1024.4 +11.4
15 19.06 СЗ 9 н/о н/о +8.8 +4.2 73 +4 +4 1023.8 1023.1
18 19.06 СЗ 11 н/о н/о +9.4 +4.3 70 +5 +5 1022.6 1021.9
21 19.06 СЗ 12 н/о н/о +9.3 +4.1 70 +4 +4 1022.4 1021.7
00 20.06 С 11 н/о н/о +10.3 +6.3 76 +6 +6 1020.7 1020.0 +7.8
03 20.06 С 9 н/о н/о +11.5 +8.3 81 +8 +8 1019.0 1018.4
06 20.06 СЗ 8 н/о н/о +11.5 +8.1 80 +8 +8 1017.3 1016.7
09 20.06 СЗ 8 н/о н/о +11.6 +8.0 79 +8 +8 1016.2 1015.6
12 20.06 СЗ 8 н/о н/о +11.6 +8.3 80 +8 +8 1014.4 1013.8 +12.1
15 20.06 С 13 н/о н/о +10.7 +9.2 90 +6 +6 1011.4 1010.8
18 20.06 С 3 н/о н/о +10.5 +10.1 97 +9 +9 1010.0 1009.4 0.8
21 20.06 СЗ 14 н/о н/о +11.8 +7.5 75 +7 +7 1008.1 1007.5
00 21.06 СЗ 14 н/о н/о +14.0 +7.1 63 +11 +11 1007.8 1007.2 +10.1 1
03 21.06 С 13 н/о н/о +14.5 +8.3 66 +12 +12 1007.1 1006.5
06 21.06 СЗ 10 н/о н/о +13.4 +6.4 63 +10 +10 1007.8 1007.2
09 21.06 СЗ 9 н/о н/о +12.0 +6.2 68 +9 +9 1009.2 1008.6
12 21.06 З 4 н/о н/о +9.5 +2.9 63 +7 +7 1009.3 1008.7 +14.7
15 21.06 СЗ 7 н/о н/о +9.8 +2.0 58 +6 +6 1009.2 1008.6
18 21.06 З 3 н/о н/о +7.9 0.0 57 +6 +6 1009.4 1008.8
21 21.06 СЗ 3 н/о н/о +8.8 +3.0 67 +7 +7 1010.7 1010.1
00 22.06 З 2 н/о н/о +10.6 +3.5 61 +10 +10 1011.3 1010.7 +7.6
03 22.06 З 2 н/о н/о +12.5 +5.1 61 +12 +12 1011.1 1010.5
06 22.06 ЮЗ 4 н/о н/о +10.7 +7.4 80 +8 +8 1011.8 1011.2
09 22.06 Ю 6 н/о н/о +10.6 +7.4 81 +7 +7 1013.1 1012.5
12 22.06 Ю 8 н/о н/о +10.5 +8.1 85 +7 +7 1012.9 1012.3 +12.8
15 22.06 Ю 9 н/о н/о +11.1 +8.9 86 +7 +7 1012.6 1012.0
18 22.06 Ю 10 н/о н/о +11.1 +7.9 81 +7 +7 1011.8 1011.2
21 22.06 Ю 11 н/о н/о +10.8 +8.2 84 +6 +6 1011.4 1010.8
00 23.06 Ю 10 н/о н/о +10.7 +7.6 81 +6 +6 1010.5 1009.9 +10.2
03 23.06 Ю 12 н/о н/о +10.4 +7.9 84 +6 +6 1008.8 1008.2
06 23.06 Ю 12 н/о н/о +10.2 +7.1 81 +5 +5 1008.5 1007.9 0.8
09 23.06 Ю 12 н/о н/о +10.1 +7.5 84 +5 +5 1009.1 1008.5
12 23.06 Ю 10 н/о н/о +10.6 +6.7 77 +6 +6 1010.6 1010.0 +11.4
15 23.06 ЮЗ 8 н/о н/о +9.9 +6.9 82 +6 +6 1011.9 1011.3
18 23.06 Ю 7 н/о н/о +9.5 +6.2 80 +6 +6 1013.2 1012.6
21 23.06 Ю 7 н/о н/о +9.7 +4.7 71 +6 +6 1015.4 1014.8
00 24.06 Ю 8 н/о н/о +10.9 +4.3 64 +8 +8 1017.4 1016.8 +8.5 0.8
03 24.06 Ю 10 н/о н/о +11.0 +3.9 62 +7 +7 1018.6 1018.0
06 24.06 Ю 8 н/о н/о +10.5 +4.5 66 +7 +7 1021.0 1020.4
09 24.06 Ю 7 н/о н/о +11.0 +5.3 68 +8 +8 1024.0 1023.3
12 24.06 Ю 7 н/о н/о +10.9 +7.2 78 +7 +7 1026.3 1025.6 +11.6
15 24.06 Ю 6 н/о н/о +9.9 +7.7 86 +6 +6 1027.5 1026.8
18 24.06 ЮЗ 3 н/о н/о +10.0 +7.2 83 +8 +8 1028.0 1027.3
21 24.06 ЮЗ 2 н/о н/о +9.3 +5.4 77 +8 +8 1029.3 1028.6
00 25.06 Ю 3 н/о н/о +11.5 +7.6 77 +10 +10 1029.7 1029.0 +8.9
03 25.06 С 3 н/о н/о +11.2 +7.1 76 +10 +10 1028.6 1027.9
06 25.06 С 6 н/о н/о +10.3 +6.7 78 +7 +7 1028.9 1028.2
09 25.06 З 4 н/о н/о +8.8 +6.1 83 +6 +6 1029.9 1029.2
12 25.06 СЗ 3 н/о н/о +7.2 +4.2 81 +5 +5 1030.5 1029.9 +11.8

 

Местоположение метеостанции Мыс Кэмпбелл (Новая Зеландия): широта -41.73 долгота 174.20 высота над уровнем моря 32 м.

В архиве по умолчанию представлена погода на Мысе Кэмпбелл за последнюю неделю. Архивные данные за месяц целиком и за предыдущие месяцы, начиная с января 2011 года, Вы можете получить, выбрав интересующий диапазон дат из раскрывающегося списка и нажав кнопку "Ввод!".


*Определитесь, кто Вы:
робот инопланетянин человек

Внимание! Время в таблицах - всемирное. Для получения местного времени необходимо прибавить поправку, которая равна 12 ч.

Смотрите также архив погоды в соседних городах и на ближайших метеорологических станциях:

Погода в Веллингтоне (Новая Зеландия) (67 км)
Погода в Кайкуре (Новая Зеландия) (86 км)
Погода в Нельсоне (Новая Зеландия) (95 км)
Погода в Парапарауму (Новая Зеландия) (113 км)
Погода на Косе Farewell (Новая Зеландия) (165 км)
Погода в Каслпойнт (Новая Зеландия) (193 км)
Погода в Пальмерстон-Норте (Новая Зеландия) (197 км)
Погода в Вестпорте (Новая Зеландия) (219 км)
Погода в Крайстчерче (Новая Зеландия) (239 км)
Погода на Уэйауру (Новая Зеландия) (284 км)

Пояснения к столбцам:

Ветер - указаны скорость ветра в м/с - средняя за 10 мин, порывы в срок и между сроками (в фигурных скобках) и направление, откуда дует ветер: С - северный, СВ - северо-восточный, В - восточный, ЮВ - юго-восточный, Ю - южный, ЮЗ - юго-западный, З - западный, СЗ - северо-западный.
Видимость - горизонтальная дальность видимости в метрах или километрах. При видимости от 1 до 10 км при отсутствии осадков обычно наблюдается дымка, при ухудшении видимости до 1 км и менее - туман. В сухую погоду видимость может ухудшаться дымом, пылью или мглою.
Явления - указаны атмосферные явления, наблюдавшиеся в срок или в последний час перед сроком; фигурными скобками обозначены явления, наблюдавшиеся между сроками (за 1-3 часа до срока); квадратными скобками обозначены град или гололедные отложения с указанием их диаметра в мм.
Облачность - указаны через наклонную черту общая и нижняя облачность в баллах и высота нижней границы облаков в метрах; квадратными скобками обозначены формы облаков: Ci - перистые, Cs - перисто-слоистые, Cc - перисто-кучевые, Ac - высококучевые, As - высокослоистые, Sc - слоисто-кучевые, Ns - слоисто-дождевые, Cu - кучевые, Cb - кучево-дождевые. Подробнее классификацию облаков см. в Атласе облаков (PDF).
T - Температура воздуха - температура, измеренная на высоте 2 м над землей.
Td - Температура точки росы - температура, при понижении до которой содержащийся в воздухе водяной пар достигнет насыщения.
f - Относительная влажность воздуха - влажноcть воздуха, измеренная на высоте 2 м над землей.
Te - Эффективная температура - температура, которую ощущает одетый по сезону человек в тени. Характеристика душности погоды. При расчете учитывается влияние влажности воздуха и скорости ветра на теплоощущения человека.
Tes - Эффективная температура на солнце - температура, которую ощущает человек, с поправкой на солнечный нагрев. Характеристика знойности погоды. Зависит от высоты солнца над горизонтом, облачности и скорости ветра. Ночью, в пасмурную погоду, а также при ветре 12 м/с и более поправка равна нулю.
P - Атмосферное давление - приведенное к уровню моря атмосферное давление.
Po - Атмосферное давление - измеренное на уровне метеостанции атмосферное давление.
Tmin - Минимальная температура - минимум температуры воздуха на высоте 2 м над землей.
Tmax - Максимальная температура - максимум температуры воздуха на высоте 2 м над землей.
R - Количество осадков - Количество выпавших осадков за период времени, мм. При наведении курсора мыши на число - период времени, за который выпало указанное количество осадков.
R24 - Количество осадков - Количество выпавших осадков за 24 часа, мм.
S - Снежный покров - Высота снежного покрова, см. При наведении курсора мыши на число - состояние снежного покрова и степень покрытия местности в баллах.